Regional Weather Roundup
Issued by NWS

Home | Current Version | Previous Version | Text Only | Print | Product List | Glossary Off
Versions: 1 2 3 4 5 6 7 8 9 10 11 12 13 14 15 16 17 18 19 20 21 22 23 24 25 26 27 28 29 30 31 32 33 34 35 36 37 38 39 40 41 42 43 44 45 46 47 48 49 50

000
ASUS43 KLOT 181512
RWRIL

ILLINOIS REGIONAL WEATHER ROUNDUP
NATIONAL WEATHER SERVICE CHICAGO/ROMEOVILLE IL
900 AM CST WED JAN 18 2017

NOTE: "FAIR" INDICATES FEW OR NO CLOUDS BELOW 12,000 FEET WITH NO
SIGNIFICANT WEATHER AND/OR OBSTRUCTIONS TO VISIBILITY.

* THESE STATIONS ARE NOT UNDER NWS QUALITY CONTROL. THEY ALSO MAY NOT
  REPORT WEATHER SUCH AS PRECIPITATION OR FOG.

ILZ001-002-007-009-015-016-024-181600-
NORTHWEST ILLINOIS

CITY           SKY/WX    TMP DP  RH WIND       PRES   REMARKS
MOLINE         CLOUDY    33  29  85 SW10      30.16R WCI  25
STERLING*      CLOUDY    34  32  92 W5        30.14F WCI  30
SAVANNA*       CLOUDY    32  30  92 CALM      30.12F
$$

ILZ003-004-008-010-011-017-018-181600-
NORTH CENTRAL ILLINOIS

CITY           SKY/WX    TMP DP  RH WIND       PRES   REMARKS
ROCKFORD       DRZL/FOG  33  32  96 W8        30.15S VSB 1   WCI  26
FREEPORT*      CLOUDY    32  32 100 CALM      30.13F FOG
ROCHELLE*      FOG       32  32 100 W8        30.14F VSB 1/4 WCI  25
DE KALB*       FOG       32  32  99 W10       30.14S VSB 1/4 WCI  24
$$

ILZ005-006-012>014-019>023-181600-
NORTHEAST ILLINOIS

CITY           SKY/WX    TMP DP  RH WIND       PRES   REMARKS
CHICAGO-OHARE  CLOUDY    33  32  96 W12       30.13S FOG     WCI  24
CHICAGO-MIDWAY CLOUDY    32  31  96 W10       30.15R WCI  24
AURORA         CLOUDY    34  32  92 W13       30.15R FOG     WCI  25
LANSING*       CLOUDY    33  33 100 W7        30.16R WCI  27
JOLIET*        CLOUDY    34  34  99 W5        30.16S FOG     WCI  30
WAUKEGAN       CLOUDY    34  33  96 W6        30.11S FOG     WCI  29
DUPAGE AIRPORT FOG       33  31  92 W10       30.13R VSB 1   WCI  25
KANKAKEE*      CLOUDY    33  33  97 W8        30.17S FOG     WCI  26
WHEELING       CLOUDY    33  32  96 W7        30.14S WCI  27
MORRIS*        CLOUDY    34  32  94 W9        30.15F FOG     WCI  26
ROMEOVILLE*    CLOUDY    33  33 100 W12       30.15S FOG     WCI  24
NORTHERLY ISL    N/A     34  31  89 W9          N/A  WCI  27
$$

LMZ740>746-181600-
SOUTHERN LAKE MICHIGAN

STATION/POSITION SKY/WX   TEMP    WIND        PRES    VSBY  WAVE
                          AIR SEA DIR/SP/G                  HT/PER
                          (F)     (DEG/KT/KT) (MB)    (MI)  (FT/S)
HARRISON CRIB              35     250/ 10/ 11   N/A
BURNHAM HARBOR             34     260/  6/ 12   N/A
CALUMET HARBOR             34     250/  5/ 14 1020.2R
BURNS HARBOR               34     270/  8/  9 1021.3R
$$

ILZ025>027-034>036-040-047-049-050-058-095>099-181600-
WEST-CENTRAL ILLINOIS

CITY           SKY/WX    TMP DP  RH WIND       PRES   REMARKS
QUINCY         CLOUDY    36  33  89 S7        30.19S FOG     WCI  30
GALESBURG*     CLOUDY    32  32 100 SW10      30.18R WCI  24
MACOMB*        CLOUDY    32  32  99 SW10      30.22R WCI  24
JACKSONVILLE*  CLOUDY    35  31  86 SW10      30.22S WCI  27
PITTSFIELD*    CLOUDY    35  32  87 SW6       30.23R WCI  30
$$

ILZ028>032-037-038-041>044-048-051>054-059>061-181600-
CENTRAL ILLINOIS

CITY           SKY/WX    TMP DP  RH WIND       PRES   REMARKS
PONTIAC        CLOUDY    35  35 100 W9        30.19R FOG     WCI  28
BLOOMINGTON    CLOUDY    36  34  93 SW9       30.20R WCI  29
DECATUR        CLOUDY    37  35  92 SW7       30.22R WCI  32
PEORIA         CLOUDY    34  31  88 SW10      30.21R WCI  26
LACON*         CLOUDY    34  32  91 SW3       30.18R
LINCOLN*       CLOUDY    37  32  84 SW5       30.22R WCI  33
SPRINGFIELD    CLOUDY    36  31  82 SW9       30.22R WCI  29
TAYLORVILLE    CLOUDY    36  32  86 W3        30.23S
$$

ILZ033-039-045-046-055>057-062-063-181600-
EAST-CENTRAL ILLINOIS

CITY           SKY/WX    TMP DP  RH WIND       PRES   REMARKS
CHAMPAIGN      CLOUDY    36  34  92 W10       30.21R WCI  28
RANTOUL*       CLOUDY    36  36  97 W3        30.20R FOG
MATTOON        CLOUDY    37  34  89 SW3       30.22R
PARIS*         CLOUDY    36  35  96 W6        30.23R WCI  31
$$

ILZ079-100>102-181600-
SOUTHWEST ILLINOIS

CITY           SKY/WX    TMP DP  RH WIND       PRES   REMARKS
ALTON          CLOUDY    37  32  81 W9        30.26R WCI  31
BELLEVILLE     CLOUDY    39  34  80 SW6       30.25R
CAHOKIA*       CLOUDY    40  31  70 SW3       30.25R
SPARTA*        CLOUDY    38  33  81 W5        30.28R WCI  35
$$

ILZ064>066-069>071-074>076-080>082-084>086-088>090-092>094-181600-
SOUTH-CENTRAL ILLINOIS

CITY           SKY/WX    TMP DP  RH WIND       PRES   REMARKS
CARBONDALE     CLOUDY    40  36  86 W5        30.26R
CAIRO*         CLOUDY    40  37  89 NE5       30.26S
EFFINGHAM*     CLOUDY    38  37  95 W3        30.26R
MARION         CLOUDY    41  39  93 W6        30.27R
MT. VERNON     CLOUDY    39  33  79 W5        30.26R
CENTRALIA*     CLOUDY    39  35  84 SW5       30.25R
SALEM*         CLOUDY    39  34  81 W5        30.25R
METROPOLIS*    CLOUDY    41  37  86 CALM      30.27R
$$

ILZ067-068-072-073-078-083-087-091-181600-
SOUTHEAST ILLINOIS

CITY           SKY/WX    TMP DP  RH WIND       PRES   REMARKS
LAWRENCEVILLE  CLOUDY    39  37  92 W6        30.25R WCI  35
FLORA*         CLOUDY    39  36  87 W3        30.26R
FAIRFIELD*     CLOUDY    39  35  85 CALM      30.25R
HARRISBURG*    CLOUDY    40  36  84 NW3       30.27R
ROBINSON*      CLOUDY    37  35  92 NW5       30.25S WCI  34
CARMI*         CLOUDY    39  36  86 W6        30.26R
$$

ABBREVIATIONS USED IN REMARKS
   TC - TEMPERATURE IN CELSIUS
  WCI - WIND CHILL INDEX
   HX - HEAT INDEX
  VSB - VISIBILITY
$$





USA.gov is the U.S. government's official web portal to all federal, state and local government web resources and services.